ランキン彗星

501P/Rankin (2020)

English version
Home page
Updated on June 14, 2025

---------------------------------------------------------------------

・ プロフィール

・ 軌道要素

                    Epoch = 2020 Dec. 17.0 TT
     T = 2020 Dec.  9.40592 TT        Peri. =  52.72595
     e = 0.6938478                    Node  = 140.58702 2000.0
     q = 0.6847970 AU                 Incl. =  10.12089
       a =  2.2367862 AU   n = 0.29462348   P =   3.34 years

・ 光度変化

        H = 19.5  G = 0.15

---------------------------------------------------------------------

軌道要素は、CBET 5520に掲載されたものです。
光度グラフはComet for Windowsで作成したものです。

---------------------------------------------------------------------

Copyright(C) Seiichi Yoshida (comet@aerith.net). All rights reserved.